OE3GWU-13 Weather Reports


time (UTC)temp
C
wind
direction
speed
KPH
gust
KPH
rain 1hr
cm
rain 24hr
cm
rain mn
cm
humidity
%
barometer
mb
20260905235004 8 345 0.0 1.6 0.00 0.28 0.28 92 1011.9
20260905233004 8 349 0.0 3.2 0.00 0.28 0.28 92 1011.9
20260905232004 8 357 1.6 1.6 0.00 0.28 0.28 92 1011.9
20260905225004 9 358 0.0 1.6 0.00 0.28 0.28 92 1011.9
20260905224004 9 359 0.0 3.2 0.00 0.28 0.28 93 1011.9
20260905223004 10 351 0.0 3.2 0.00 0.28 0.28 91 1011.5
20260905222004 9 8 1.6 1.6 0.00 0.28 0.28 94 1011.5
20260905220004 10 3 1.6 3.2 0.00 0.28 0.28 94 1011.5
20260905215004 10 351 0.0 1.6 0.00 0.28 0.28 96 1011.5
20260905213009 9 350 0.0 1.6 0.00 0.28 0.28 97 1011.2
20260905212005 10 346 0.0 1.6 0.00 0.28 0.28 97 1010.8
20260905211004 10 323 1.6 1.6 0.00 0.28 0.28 97 1011.2
20260905205004 10 338 0.0 1.6 0.00 0.28 0.28 96 1011.2
20260905204004 10 337 0.0 1.6 0.00 0.28 0.28 96 1010.8
20260905203004 11 326 1.6 1.6 0.00 0.28 0.28 93 1011.2
20260905200004 11 343 0.0 0.0 0.00 0.28 0.28 94 1010.5
20260905195004 12 354 0.0 1.6 0.00 0.28 0.28 91 1010.6
20260905194004 12 331 0.0 1.6 0.00 0.28 0.28 91 1010.5
20260905193004 12 333 0.0 1.6 0.00 0.28 0.28 91 1010.5
20260905192004 12 30 1.6 1.6 0.00 0.28 0.28 93 1010.5
20260905191004 12 342 0.0 0.0 0.00 0.28 0.28 92 1010.2
20260905190004 12 340 0.0 0.0 0.00 0.28 0.28 90 1010.5
20260905184004 13 352 0.0 0.0 0.00 0.28 0.28 88 1010.2
20260905181004 13 349 0.0 1.6 0.00 0.28 0.28 83 1009.8
20260905180004 14 344 0.0 1.6 0.00 0.28 0.28 81 1009.5
20260905173004 15 45 1.6 8.0 0.00 0.28 0.28 77 1008.8
20260905171004 15 348 0.0 8.0 0.00 0.28 0.28 75 1008.8
20260905170004 15 1 3.2 4.8 0.00 0.28 0.28 76 1009.1
20260905164004 16 25 4.8 9.7 0.00 0.28 0.28 71 1008.8
20260905162004 16 193 1.6 9.7 0.00 0.28 0.28 70 1008.8
20260905161004 16 14 1.6 12.9 0.00 0.28 0.28 70 1008.8
20260905160004 16 52 1.6 29.0 0.00 0.28 0.28 70 1008.5
20260905155004 16 327 1.6 11.3 0.00 0.28 0.28 68 1008.5
20260905154004 17 232 4.8 9.7 0.00 0.28 0.28 67 1008.5
20260905153004 17 10 3.2 3.2 0.00 0.28 0.28 67 1008.5
20260905152004 17 335 1.6 3.2 0.00 0.28 0.28 70 1008.8
20260905151004 17 44 1.6 8.0 0.00 0.28 0.28 68 1008.5
20260905150004 17 23 4.8 12.9 0.00 0.28 0.28 68 1008.8
20260905144004 17 344 3.2 20.9 0.00 0.28 0.28 68 1008.5
20260905141004 17 350 1.6 8.0 0.00 0.28 0.28 70 1008.8
20260905135004 18 358 3.2 11.3 0.00 0.28 0.28 65 1008.8
20260905134004 18 347 3.2 14.5 0.00 0.28 0.28 66 1008.8
20260905133004 17 304 6.4 14.5 0.00 0.28 0.28 71 1008.8
20260905132004 17 14 3.2 4.8 0.00 0.28 0.28 72 1008.8
20260905130004 17 18 3.2 8.0 0.00 0.28 0.28 72 1008.8
20260905125004 18 223 9.7 16.1 0.00 0.28 0.28 74 1008.8
20260905124004 17 22 4.8 8.0 0.00 0.28 0.28 76 1008.8
20260905123004 16 213 3.2 4.8 0.00 0.28 0.28 80 1009.1
20260905122004 15 356 1.6 9.7 0.00 0.28 0.28 82 1009.1
20260905121004 15 356 3.2 8.0 0.00 0.28 0.28 83 1009.1
20260905120004 16 19 1.6 8.0 0.00 0.28 0.28 81 1008.8
20260905115004 16 339 1.6 8.0 0.00 0.28 0.28 81 1009.1
20260905114004 17 2 1.6 4.8 0.00 0.28 0.28 78 1008.8
20260905113004 15 345 1.6 3.2 0.00 0.28 0.28 85 1008.8
20260905110004 14 351 3.2 4.8 0.00 0.28 0.28 89 1008.8
20260905104004 13 243 0.0 9.7 0.00 0.28 0.28 90 1009.1
20260905103004 13 328 1.6 14.5 0.00 0.28 0.28 93 1009.1
20260905101004 13 296 3.2 4.8 0.00 0.28 0.28 92 1009.1
20260905100004 13 228 3.2 9.7 0.00 0.28 0.28 91 1009.1
20260905094004 13 196 3.2 14.5 0.00 0.28 0.28 91 1009.1
20260905092004 12 141 4.8 9.7 0.00 0.28 0.28 94 1009.1
20260905091004 12 222 3.2 8.0 0.00 0.28 0.28 96 1008.9
20260905085004 12 275 3.2 12.9 0.00 0.28 0.28 96 1008.8
20260905083004 12 201 9.7 12.9 0.00 0.28 0.28 96 1008.5
20260905082005 12 232 4.8 9.7 0.03 0.28 0.28 96 1008.5
20260905081004 12 307 3.2 9.7 0.05 0.28 0.28 97 1008.1
20260905080004 12 181 3.2 9.7 0.05 0.28 0.28 98 1008.5
20260905075004 12 279 3.2 8.0 0.05 0.28 0.28 95 1008.1
20260905074004 12 205 4.8 4.8 0.08 0.28 0.28 98 1008.5
20260905073004 11 337 1.6 4.8 0.08 0.28 0.28 98 1008.1
20260905072006 11 302 3.2 9.7 0.08 0.25 0.25 97 1007.8
20260905071004 11 317 3.2 3.2 0.08 0.23 0.23 99 1007.8
20260905070004 11 333 1.6 3.2 0.08 0.23 0.23 99 1007.8
20260905065004 11 303 1.6 3.2 0.08 0.23 0.23 99 1007.5
20260905063004 11 314 1.6 9.7 0.18 0.20 0.20 98 1007.8
20260905061004 11 21 1.6 3.2 0.15 0.15 0.15 98 1007.1
20260905060004 11 0 1.6 4.8 0.15 0.15 0.15 98 1007.1
20260905055004 11 336 1.6 16.1 0.15 0.15 0.15 98 1007.1
20260905054004 12 42 1.6 11.3 0.13 0.13 0.13 97 1007.5
20260905053004 12 14 4.8 8.0 0.03 0.03 0.03 93 1007.5
20260905052004 12 357 4.8 16.1 0.00 0.00 0.00 89 1007.5
20260905044004 13 353 1.6 8.0 0.00 0.00 0.00 87 1006.8
20260905041005 14 356 0.0 16.1 0.00 0.00 0.00 77 1006.1
20260905040004 14 24 6.4 16.1 0.00 0.00 0.00 76 1005.7
20260905034004 14 7 1.6 8.0 0.00 0.00 0.00 76 1005.6
20260905032004 14 19 4.8 8.0 0.00 0.00 0.00 77 1005.4
20260905031004 14 11 4.8 8.0 0.00 0.00 0.00 79 1005.4
20260905025004 15 19 3.2 14.5 0.00 0.00 0.00 81 1005.4
20260905024004 15 330 11.3 16.1 0.00 0.00 0.00 82 1005.4
20260905023004 15 16 9.7 24.1 0.00 0.00 0.00 81 1005.4
20260905022004 17 35 14.5 22.5 0.00 0.00 0.00 78 1005.4
20260905021004 18 7 8.0 14.5 0.00 0.00 0.00 71 1004.4
20260905015004 18 313 3.2 8.0 0.00 0.00 0.00 70 1004.1
20260905012004 19 344 0.0 4.8 0.00 0.00 0.00 69 1004.1
20260905011004 19 150 3.2 4.8 0.00 0.00 0.00 67 1004.1
20260905010004 20 352 0.0 8.0 0.00 0.00 0.00 66 1004.1
20260905005004 20 4 0.0 3.2 0.00 0.00 0.00 67 1004.1
20260905003004 20 22 1.6 3.2 0.00 0.00 0.00 66 1004.1
20260905000008 20 357 3.2 3.2 0.00 0.00 0.00 66 1003.7